一网星座-0058星 (ONEWEB-0058 )

导读 | 星芒AI

ONEWEB-0058 是 OneWeb 卫星星座计划中的一颗低轨通信卫星,旨在为全球提供高速互联网服务。该卫星采用标准化设计,由阿丽亚娜集团制造,搭载星间链路和多波束天线,支持广域覆盖和高效数据传输。2022 年 2 月,该卫星随其他 34 颗 OneWeb 卫星由俄罗斯联盟号火箭成功发射入轨。作为 OneWeb 低轨卫星网络的重要组成部分,它有助于提升偏远和农村地区的网络接入能力,推动全球数字包容性发展。

基本信息
目录编号:
45161
目录名称:
ONEWEB-0058
国际标识:
2020-008AG
轨道中心:
EARTH
卫星名称:
一网星座-0058星
卫星全名:
一网星座-0058星 (ONEWEB-0058 )
卫星状态:
在轨 (已飞行2137 天)
发射日期:
2020-02-06 UTC
国别 :
英国 (GB)
星等 :
--
轨道信息
数据来源 国际轨道数据
星历时间: 2025-12-13T07:23:36+0800
10小时前
查看轨道信息
半长轴: 7599.847km
偏心率: 0.0001675
轨道倾角: 87.881°
近地点辐角 95.453°
升交点赤经 73.407°
平近点角 264.679°
近地点: 1220.439km
远地点: 1222.985km
周期: 109.892分钟
每日圈数: 13.103749
详细信息
平衡模式:
三轴稳定
覆盖范围:
全球
运营商:
一网卫星公司
运营商所在国:
英国
制造商(研发单位):
一网卫星公司
制造商所在国:
英国
使用方式:
暂无
卫星简介
OneWeb卫星网络由648颗重约125公斤的微型卫星组成,运行在1200公里的轨道上。 每颗卫星都能够提供至少每秒8千兆位的吞吐量,以使用其高吞吐量的Ku频段有效载荷为家庭和移动平台提供互联网接入。该卫星仍在工作。
2D轨道图
3D轨道图
轨道高度分析图
轨道倾角分析图
轨道综合分析图
查看轨道综合分析图